• Join FlightAware (Why Join?)
  • Login
  • US Flag GB Flag 
08:20 EDT


 

Airport Tracker/Info


-or-


 

Live Flight TrackerFlight Track Log ✈ SWA1319 ✈ 29-Apr-2013 ✈ KMHT - KBWI

Flight Track Log - Related Links

Times and Time Zones

All times are in EDT time to prevent confusion due to time zone crossing. See the SWA1319 flight status page for this flight to view local times or setup timezone preferences in your user account.

Time Position Orientation Groundspeed Altitude Reporting Facility
EDT Latitude Longitude Course Direction KTS MPH feet Rate Location/Type
08:37 42.9833 -71.4667 10° North 228 262 2,800  Level KA90
08:38 43.0500 -71.4500 10° North 244 281 5,800 2,400 Climbing KA90
08:40 43.0631 -71.2494 85° East 286 329 10,600 1,980 Climbing Boston Center
08:41 43.0639 -71.1214 89° East 309 356 12,100 1,920 Climbing Boston Center
08:43 43.0661 -70.9622 89° East 335 386 15,300 2,340 Climbing Boston Center
08:44 42.9628 -70.8711 147° Southeast 316 364 17,800 2,160 Climbing Boston Center
08:45 42.8611 -70.9078 195° South 306 352 19,700 1,920 Climbing Boston Center
08:46 42.7619 -70.9667 204° Southwest 340 391 21,700 1,740 Climbing Boston Center
08:47 42.6583 -71.0256 203° Southwest 385 443 23,200 1,440 Climbing Boston Center
08:48 42.5825 -71.1372 227° Southwest 394 453 24,600 1,500 Climbing Boston Center
08:49 42.5278 -71.2767 242° Southwest 397 457 26,200 1,560 Climbing Boston Center
08:50 42.4728 -71.4128 241° Southwest 437 503 27,800 1,620 Climbing Boston Center
08:51 42.4156 -71.5486 240° Southwest 437 503 29,500 1,680 Climbing Boston Center
08:52 42.3456 -71.6675 231° Southwest 426 490 31,200 1,200 Climbing Boston Center
08:53 42.2797 -71.7892 234° Southwest 416 479 32,000 360 Climbing Boston Center
08:54 42.2136 -71.9075 233° Southwest 409 471 32,000  Level Boston Center
08:55 42.1494 -72.0311 235° Southwest 409 471 32,000  Level Boston Center
08:56 42.0833 -72.1519 234° Southwest 409 471 32,000  Level Boston Center
08:57 42.0167 -72.2697 233° Southwest 409 471 32,000  Level Boston Center
08:58 41.9503 -72.3897 233° Southwest 409 471 32,000  Level Boston Center
08:59 41.8856 -72.5097 234° Southwest 409 471 32,000  Level Boston Center
09:00 41.8231 -72.6239 234° Southwest 404 465 32,000  Level Boston Center
09:01 41.7581 -72.7406 233° Southwest 398 458 32,000  Level Boston Center
09:02 41.6931 -72.8542 233° Southwest 398 458 32,000  Level Boston Center
09:03 41.6303 -72.9678 234° Southwest 392 451 32,000  Level Boston Center
09:04 41.5669 -73.0811 233° Southwest 387 445 32,000  Level Boston Center
09:05 41.5081 -73.1831 232° Southwest 380 437 32,000  Level Boston Center
09:07 41.3822 -73.4036 233° Southwest 380 437 32,000  Level New York Center
09:08 41.3278 -73.5036 234° Southwest 375 432 32,000  Level New York Center
09:09 41.2561 -73.6303 233° Southwest 375 432 32,000  Level New York Center
09:10 41.1933 -73.7325 231° Southwest 375 432 32,000  Level New York Center
09:11 41.1322 -73.8372 232° Southwest 375 432 32,000  Level New York Center
09:12 41.0733 -73.9392 233° Southwest 365 420 32,000  Level New York Center
09:13 41.0100 -74.0406 230° Southwest 365 420 32,000  Level New York Center
09:14 40.9511 -74.1422 233° Southwest 365 420 32,000 -360 Level New York Center
09:15 40.8856 -74.2403 229° Southwest 365 420 31,300 -1,500 Descending New York Center
09:16 40.8200 -74.3494 232° Southwest 370 426 29,000 -1,680 Descending New York Center
09:17 40.7517 -74.4636 232° Southwest 388 447 28,000 -540 Descending New York Center
09:18 40.6858 -74.5750 232° Southwest 394 453 28,000  Level New York Center
09:19 40.6197 -74.6836 231° Southwest 394 453 28,000  Level New York Center
09:20 40.5517 -74.7861 229° Southwest 389 448 28,000  Level New York Center
09:21 40.4817 -74.8858 227° Southwest 384 442 28,000 -420 Level New York Center
09:22 40.4133 -74.9853 228° Southwest 373 429 27,200 -900 Descending New York Center
09:23 40.3411 -75.0842 226° Southwest 373 429 26,200 -1,020 Descending New York Center
09:24 40.2686 -75.1858 227° Southwest 373 429 25,200 -1,020 Descending New York Center
09:25 40.2003 -75.2847 228° Southwest 373 429 24,200 -1,020 Descending New York Center
09:26 40.1297 -75.3806 226° Southwest 373 429 23,200 -960 Descending New York Center
09:27 40.0592 -75.4792 227° Southwest 373 429 22,300 -1,020 Descending New York Center
09:28 39.9886 -75.5744 226° Southwest 373 429 21,300 -1,020 Descending New York Center
09:29 39.9200 -75.6700 227° Southwest 373 429 20,300 -1,020 Descending New York Center
09:30 39.8700 -75.7692 237° Southwest 373 429 19,300 -1,440 Descending New York Center
09:31 39.8156 -75.8708 235° Southwest 367 422 17,400 -1,620 Descending New York Center
09:33 39.7000 -76.0667 233° Southwest 293 337 14,500 -1,620 Descending Potomac TRACON
09:35 39.6500 -76.2500 251° West 294 338 11,000 -1,380 Descending Potomac TRACON
09:37 39.4909 -76.3735 210° Southwest  Level FlightAware Approximate
09:38 39.6000 -76.5167 210° Southwest 223 257 7,800  Level Potomac TRACON
09:39 39.5667 -76.5667 229° Southwest 213 245 6,800 -1,080 Descending Potomac TRACON
09:40 39.5167 -76.6333 226° Southwest 208 239 5,700 -1,200 Descending Potomac TRACON
09:41 39.4833 -76.6833 229° Southwest 207 238 4,500 -840 Descending Potomac TRACON
09:42 39.4500 -76.7500 237° Southwest 202 232 4,100 -300 Descending Potomac TRACON
09:43 39.4167 -76.8167 237° Southwest 224 258 4,000 -60 Descending Potomac TRACON
09:44 39.3833 -76.8667 229° Southwest 215 247 4,000  Level Potomac TRACON
09:45 39.3500 -76.9333 237° Southwest 202 232 4,000  Level Potomac TRACON
09:46 39.3167 -76.9500 201° Southwest 163 188 4,000  Level Potomac TRACON
09:47 39.2667 -76.9500 180° South 154 177 4,100 -60 Climbing Potomac TRACON
09:47 39.2333 -76.9500 180° South 141 162 3,900 -480 Descending Potomac TRACON
09:48 39.2000 -76.9333 159° South 152 175 3,300 -600 Descending Potomac TRACON
09:49 39.1833 -76.8833 113° Southeast 143 165 2,800 -480 Descending Potomac TRACON
09:50 39.1833 -76.8500 90° East 146 168 2,500 -600 Descending Potomac TRACON
09:51 39.1833 -76.8000 90° East 139 160 1,800 -780 Descending Potomac TRACON
09:52 39.1833 -76.7500 90° East 131 151 1,100 -660 Descending Potomac TRACON
09:53 39.1833 -76.7000 90° East 132 152 500 -660 Descending Potomac TRACON
09:55 39.1667 -76.6667 270° West  Level FlightAware Approximate